KC3BHK-2 Weather Reports


Display with metric or nautical units.
time (UTC)temp
F
wind
direction
speed
MPH
gust
MPH
rain 1hr
in
rain 24hr
in
rain mn
in
humidity
%
barometer
mb
20260510230607 64 55 0.0 0.0 0.00 0.00 0.00
20260510225557 64 55 0.0 0.0 0.00 0.00 0.00
20260510225052 65 55 0.0 0.0 0.00 0.00 0.00
20260510224039 64 55 0.0 0.0 0.00 0.00 0.00
20260510223534 63 55 0.0 0.0 0.00 0.00 0.00
20260510223030 62 55 0.0 0.0 0.00 0.00 0.00
20260510222525 62 55 0.0 0.0 0.00 0.00 0.00
20260510222020 63 55 0.0 0.0 0.00 0.00 0.00
20260510221515 63 55 0.0 3.0 0.00 0.00 0.00
20260510221007 64 55 0.0 4.0 0.00 0.00 0.00
20260510220502 64 122 3.0 0.0 0.00 0.00 0.00
20260510215957 65 315 0.0 5.0 0.00 0.00 0.00
20260510215451 66 252 0.0 8.0 0.00 0.00 0.00
20260510214946 67 256 0.0 11.0 0.00 0.00 0.00
20260510214441 67 290 2.0 13.0 0.00 0.00 0.00
20260510213934 66 290 7.0 16.0 0.00 0.00 0.00
20260510213429 68 311 2.0 9.0 0.00 0.00 0.00
20260510212924 68 80 1.0 9.0 0.00 0.00 0.00
20260510212420 69 321 2.0 9.0 0.00 0.00 0.00
20260510211915 71 37 1.0 10.0 0.00 0.00 0.00
20260510210902 71 294 2.0 12.0 0.00 0.00 0.00
20260510210358 71 300 4.0 12.0 0.00 0.00 0.00
20260510205853 71 346 6.0 12.0 0.00 0.00 0.00
20260510205348 73 297 4.0 6.0 0.00 0.00 0.00
20260510204843 72 315 0.0 4.0 0.00 0.00 0.00
20260510204339 75 39 0.0 4.0 0.00 0.00 0.00
20260510203830 74 250 2.0 6.0 0.00 0.00 0.00
20260510203325 75 302 1.0 5.0 0.00 0.00 0.00
20260510202820 77 274 3.0 5.0 0.00 0.00 0.00
20260510202316 76 31 0.0 5.0 0.00 0.00 0.00
20260510201811 77 24 0.0 8.0 0.00 0.00 0.00
20260510201306 77 280 1.0 8.0 0.00 0.00 0.00
20260510200759 75 293 2.0 11.0 0.00 0.00 0.00
20260510200254 73 294 6.0 10.0 0.00 0.00 0.00
20260510195749 72 262 2.0 7.0 0.00 0.00 0.00
20260510195244 73 284 5.0 10.0 0.00 0.00 0.00
20260510194740 73 263 2.0 6.0 0.00 0.00 0.00
20260510194235 73 288 5.0 15.0 0.00 0.00 0.00
20260510193727 73 284 4.0 8.0 0.00 0.00 0.00
20260510193223 75 301 2.0 8.0 0.00 0.00 0.00
20260510192718 76 283 6.0 14.0 0.00 0.00 0.00
20260510192212 75 256 10.0 13.0 0.00 0.00 0.00
20260510191708 77 297 2.0 13.0 0.00 0.00 0.00
20260510191203 78 229 7.0 14.0 0.00 0.00 0.00
20260510190655 77 269 8.0 13.0 0.00 0.00 0.00
20260510190151 77 281 7.0 9.0 0.00 0.00 0.00
20260510185646 80 345 2.0 11.0 0.00 0.00 0.00
20260510185141 79 274 6.0 13.0 0.00 0.00 0.00
20260510184637 80 267 8.0 16.0 0.00 0.00 0.00
20260510184132 80 271 5.0 17.0 0.00 0.00 0.00
20260510183624 80 238 13.0 11.0 0.00 0.00 0.00
20260510183120 78 277 7.0 11.0 0.00 0.00 0.00
20260510182615 79 207 6.0 11.0 0.00 0.00 0.00
20260510182110 79 262 9.0 9.0 0.00 0.00 0.00
20260510181606 79 284 6.0 10.0 0.00 0.00 0.00
20260510181100 78 228 3.0 14.0 0.00 0.00 0.00
20260510180048 82 260 11.0 9.0 0.00 0.00 0.00
20260510175543 83 114 0.0 15.0 0.00 0.00 0.00
20260510175039 82 260 10.0 10.0 0.00 0.00 0.00
20260510174534 81 181 0.0 11.0 0.00 0.00 0.00
20260510174029 81 226 4.0 13.0 0.00 0.00 0.00
20260510173522 81 217 9.0 10.0 0.00 0.00 0.00
20260510173017 82 270 5.0 12.0 0.00 0.00 0.00
20260510172512 80 267 3.0 10.0 0.00 0.00 0.00
20260510172008 80 219 3.0 11.0 0.00 0.00 0.00
20260510171503 81 232 7.0 7.0 0.00 0.00 0.00
20260510170958 80 263 3.0 11.0 0.00 0.00 0.00
20260510170450 79 319 5.0 9.0 0.00 0.00 0.00
20260510165945 77 323 2.0 11.0 0.00 0.00 0.00
20260510165441 80 329 2.0 11.0 0.00 0.00 0.00
20260510164936 79 4 3.0 12.0 0.00 0.00 0.00
20260510164432 81 276 5.0 11.0 0.00 0.00 0.00
20260510163927 80 301 7.0 12.0 0.00 0.00 0.00
20260510163420 79 311 2.0 14.0 0.00 0.00 0.00
20260510162915 77 277 11.0 14.0 0.00 0.00 0.00
20260510162410 80 239 8.0 13.0 0.00 0.00 0.00
20260510161906 77 257 10.0 12.0 0.00 0.00 0.00
20260510161401 76 232 11.0 17.0 0.00 0.00 0.00
20260510160856 78 191 14.0 10.0 0.00 0.00 0.00
20260510160349 78 226 5.0 14.0 0.00 0.00 0.00
20260510155844 78 238 14.0 13.0 0.00 0.00 0.00
20260510155339 79 338 3.0 13.0 0.00 0.00 0.00
20260510154835 78 295 4.0 13.0 0.00 0.00 0.00
20260510154330 76 260 8.0 11.0 0.00 0.00 0.00
20260510153825 77 246 9.0 11.0 0.00 0.00 0.00
20260510153317 77 281 8.0 12.0 0.00 0.00 0.00
20260510152813 76 211 10.0 10.0 0.00 0.00 0.00
20260510152308 77 270 5.0 8.0 0.00 0.00 0.00
20260510151803 76 207 2.0 9.0 0.00 0.00 0.00
20260510151258 73 207 8.0 10.0 0.00 0.00 0.00
20260510150754 75 120 9.0 12.0 0.00 0.00 0.00
20260510150245 72 205 5.0 14.0 0.00 0.00 0.00
20260510144731 75 228 8.0 12.0 0.00 0.00 0.00
20260510144226 74 203 3.0 10.0 0.00 0.00 0.00
20260510143721 73 184 4.0 10.0 0.00 0.00 0.00
20260510143214 75 222 10.0 11.0 0.00 0.00 0.00
20260510142709 74 184 4.0 10.0 0.00 0.00 0.00
20260510142204 73 100 1.0 8.0 0.00 0.00 0.00
20260510141659 71 169 6.0 8.0 0.00 0.00 0.00
20260510141154 72 124 6.0 8.0 0.00 0.00 0.00
20260510140650 70 214 4.0 8.0 0.00 0.00 0.00
20260510140142 71 167 4.0 8.0 0.00 0.00 0.00
20260510135131 69 226 4.0 7.0 0.00 0.00 0.00
20260510134626 69 212 2.0 4.0 0.00 0.00 0.00
20260510134122 68 257 0.0 6.0 0.00 0.00 0.00
20260510133617 68 221 3.0 6.0 0.00 0.00 0.00
20260510133109 67 252 4.0 5.0 0.00 0.00 0.00
20260510132604 65 113 5.0 6.0 0.00 0.00 0.00
20260510132059 64 176 2.0 5.0 0.00 0.00 0.00
20260510131554 62 127 2.0 4.0 0.00 0.00 0.00
20260510131049 62 52 0.0 5.0 0.00 0.00 0.00
20260510130037 60 145 2.0 3.0 0.00 0.00 0.00
20260510125532 59 195 1.0 3.0 0.00 0.00 0.00
20260510125027 59 169 1.0 3.0 0.00 0.00 0.00
20260510124612 58 190 2.0 0.0 0.00 0.00 0.00
20260510124522 58 190 2.0 0.0 0.00 0.00 0.00
20260510124017 58 117 0.0 0.0 0.00 0.00 0.00
20260510123513 58 117 0.0 2.0 0.00 0.00 0.00
20260510123005 56 117 0.0 2.0 0.00 0.00 0.00
20260510122500 55 42 0.0 4.0 0.00 0.00 0.00
20260510121955 55 62 0.0 0.0 0.00 0.00 0.00
20260510121450 54 62 0.0 0.0 0.00 0.00 0.00
20260510120945 55 62 0.0 0.0 0.00 0.00 0.00
20260510120440 53 62 0.0 0.0 0.00 0.00 0.00
20260510115932 53 62 0.0 0.0 0.00 0.00 0.00
20260510114922 53 62 0.0 0.0 0.00 0.00 0.00
20260510114417 52 62 0.0 0.0 0.00 0.00 0.00
20260510113912 51 62 0.0 0.0 0.00 0.00 0.00
20260510113407 52 62 0.0 1.0 0.00 0.00 0.00
20260510112859 50 101 0.0 0.0 0.00 0.00 0.00
20260510112354 49 101 0.0 0.0 0.00 0.00 0.00
20260510111849 51 101 0.0 0.0 0.00 0.00 0.00
20260510111344 49 101 0.0 0.0 0.00 0.00 0.00
20260510110839 49 101 0.0 0.0 0.00 0.00 0.00
20260510110333 49 101 0.0 0.0 0.00 0.00 0.00
20260510105825 48 101 0.0 0.0 0.00 0.00 0.00
20260510105320 48 101 0.0 0.0 0.00 0.00 0.00
20260510104815 45 101 0.0 0.0 0.00 0.00 0.00
20260510104310 46 101 0.0 0.0 0.00 0.00 0.00
20260510103805 46 101 0.0 0.0 0.00 0.00 0.00
20260510103259 45 101 0.0 0.0 0.00 0.00 0.00
20260510102751 45 101 0.0 0.0 0.00 0.00 0.00
20260510102245 45 101 0.0 0.0 0.00 0.00 0.00
20260510101740 45 101 0.0 0.0 0.00 0.00 0.00
20260510101235 44 101 0.0 0.0 0.00 0.00 0.00
20260510100730 46 101 0.0 0.0 0.00 0.00 0.00
20260510095211 45 101 0.0 0.0 0.00 0.00 0.00
20260510094706 46 101 0.0 0.0 0.00 0.00 0.00
20260510094201 46 101 0.0 0.0 0.00 0.00 0.00
20260510093656 46 101 0.0 0.0 0.00 0.00 0.00
20260510093151 45 101 0.0 0.0 0.00 0.00 0.00
20260510092137 45 101 0.0 0.0 0.00 0.00 0.00
20260510091632 45 101 0.0 0.0 0.00 0.00 0.00
20260510091127 44 101 0.0 0.0 0.00 0.00 0.00
20260510090622 45 101 0.0 0.0 0.00 0.00 0.00
20260510090117 46 101 0.0 0.0 0.00 0.00 0.00
20260510085609 46 101 0.0 0.0 0.00 0.00 0.00
20260510085104 47 101 0.0 4.0 0.00 0.00 0.00
20260510084558 46 101 0.0 0.0 0.00 0.00 0.00
20260510084052 46 295 0.0 0.0 0.00 0.00 0.00
20260510083547 46 295 0.0 0.0 0.00 0.00 0.00
20260510083041 45 295 0.0 0.0 0.00 0.00 0.00
20260510082533 45 295 0.0 0.0 0.00 0.00 0.00
20260510081523 45 295 0.0 0.0 0.00 0.00 0.00
20260510081017 46 295 0.0 0.0 0.00 0.00 0.00
20260510080512 45 295 0.0 0.0 0.00 0.00 0.00
20260510080007 45 295 0.0 0.0 0.00 0.00 0.00
20260510075459 45 295 0.0 0.0 0.00 0.00 0.00
20260510074954 45 295 0.0 1.0 0.00 0.00 0.00
20260510074449 46 295 1.0 0.0 0.00 0.00 0.00
20260510073944 45 316 0.0 0.0 0.00 0.00 0.00
20260510073439 44 316 0.0 0.0 0.00 0.00 0.00
20260510072934 45 316 0.0 0.0 0.00 0.00 0.00
20260510072426 44 316 0.0 0.0 0.00 0.00 0.00
20260510071921 45 316 0.0 0.0 0.00 0.00 0.00
20260510071416 45 316 0.0 0.0 0.00 0.00 0.00
20260510070911 46 316 0.0 0.0 0.00 0.00 0.00
20260510070406 45 316 0.0 0.0 0.00 0.00 0.00
20260510065901 45 316 0.0 0.0 0.00 0.00 0.00
20260510065353 46 316 0.0 0.0 0.00 0.00 0.00
20260510064847 44 316 0.0 0.0 0.00 0.00 0.00
20260510064342 45 316 0.0 0.0 0.00 0.00 0.00
20260510063837 45 316 0.0 0.0 0.00 0.00 0.00
20260510063332 47 316 0.0 0.0 0.00 0.00 0.00
20260510062827 46 316 0.0 0.0 0.00 0.00 0.00
20260510062319 47 316 0.0 0.0 0.00 0.00 0.00
20260510061814 46 316 0.0 0.0 0.00 0.00 0.00
20260510061309 46 316 0.0 0.0 0.00 0.00 0.00
20260510060804 46 316 0.0 0.0 0.00 0.00 0.00
20260510060259 46 316 0.0 0.0 0.00 0.00 0.00
20260510055754 47 316 0.0 0.0 0.00 0.00 0.00
20260510055245 46 316 0.0 0.0 0.00 0.00 0.00
20260510054740 47 316 0.0 0.0 0.00 0.00 0.00
20260510054234 46 316 0.0 0.0 0.00 0.00 0.00
20260510053729 47 316 0.0 0.0 0.00 0.00 0.00
20260510053224 46 316 0.0 0.0 0.00 0.00 0.00
20260510052719 48 316 0.0 0.0 0.00 0.00 0.00
20260510052211 46 316 0.0 0.0 0.00 0.00 0.00
20260510051706 47 316 0.0 0.0 0.00 0.00 0.00
20260510051201 47 316 0.0 0.0 0.00 0.00 0.00
20260510050656 47 316 0.0 0.0 0.00 0.00 0.00
20260510050151 48 316 0.0 0.0 0.00 0.00 0.00
20260510045646 48 316 0.0 0.0 0.00 0.00 0.00
20260510045137 48 316 0.0 0.0 0.00 0.00 0.00
20260510044632 48 316 0.0 0.0 0.00 0.00 0.00
20260510044127 48 316 0.0 0.0 0.00 0.00 0.00
20260510043622 49 316 0.0 0.0 0.00 0.00 0.00
20260510043117 49 316 0.0 0.0 0.00 0.00 0.00
20260510042612 49 316 0.0 0.0 0.00 0.00 0.00
20260510042104 49 316 0.0 0.0 0.00 0.00 0.00
20260510041559 48 316 0.0 0.0 0.00 0.00 0.00
20260510041054 49 316 0.0 0.0 0.00 0.00 0.00
20260510040548 48 316 0.0 0.0 0.00 0.00 0.00
20260510040043 49 316 0.0 0.0 0.00 0.00 0.00
20260510035538 48 316 0.0 0.0 0.00 0.00 0.00
20260510035030 50 316 0.0 0.0 0.00 0.00 0.00
20260510034525 50 316 0.0 0.0 0.00 0.00 0.00
20260510034019 51 316 0.0 0.0 0.00 0.00 0.00
20260510033009 50 316 0.0 0.0 0.00 0.00 0.00
20260510032504 50 316 0.0 0.0 0.00 0.00 0.00
20260510031956 50 316 0.0 0.0 0.00 0.00 0.00
20260510031451 49 316 0.0 0.0 0.00 0.00 0.00
20260510030946 50 316 0.0 0.0 0.00 0.00 0.00
20260510030441 50 316 0.0 0.0 0.00 0.00 0.00
20260510025936 50 316 0.0 0.0 0.00 0.00 0.00
20260510025431 51 316 0.0 0.0 0.00 0.00 0.00
20260510024923 52 316 0.0 0.0 0.00 0.00 0.00
20260510024418 52 316 0.0 0.0 0.00 0.00 0.00
20260510023913 52 316 0.0 0.0 0.00 0.00 0.00
20260510023408 53 316 0.0 0.0 0.00 0.00 0.00
20260510022903 52 316 0.0 0.0 0.00 0.00 0.00
20260510022359 53 316 0.0 0.0 0.00 0.00 0.00
20260510021851 52 316 0.0 0.0 0.00 0.00 0.00
20260510021346 52 316 0.0 0.0 0.00 0.00 0.00
20260510020336 53 316 0.0 0.0 0.00 0.00 0.00
20260510015831 52 316 0.0 0.0 0.00 0.00 0.00
20260510015326 53 316 0.0 0.0 0.00 0.00 0.00
20260510014819 53 316 0.0 0.0 0.00 0.00 0.00
20260510014314 54 316 0.0 0.0 0.00 0.00 0.00
20260510013809 53 316 0.0 0.0 0.00 0.00 0.00
20260510013304 54 316 0.0 0.0 0.00 0.00 0.00
20260510012759 53 316 0.0 0.0 0.00 0.00 0.00
20260510011747 56 316 0.0 2.0 0.00 0.00 0.00
20260510011242 55 347 0.0 0.0 0.00 0.00 0.00
20260510010737 56 347 0.0 0.0 0.00 0.00 0.00
20260510010232 57 347 0.0 0.0 0.00 0.00 0.00
20260510005726 58 347 0.0 1.0 0.00 0.00 0.00
20260510005222 57 8 0.0 0.0 0.00 0.00 0.00
20260510004714 58 8 0.0 1.0 0.00 0.00 0.00
20260510004209 57 281 0.0 1.0 0.00 0.00 0.00
20260510003704 59 291 1.0 1.0 0.00 0.00 0.00
20260510003200 59 17 0.0 0.0 0.00 0.00 0.00
20260510002655 59 17 0.0 0.0 0.00 0.00 0.00
20260510002150 61 17 0.0 0.0 0.00 0.00 0.00
20260510001642 62 17 0.0 0.0 0.00 0.00 0.00
20260510001138 62 17 0.0 0.0 0.00 0.00 0.00
20260510000633 64 17 0.0 2.0 0.00 0.00 0.00
20260510000128 63 34 0.0 0.0 0.00 0.00 0.00
20260509235623 64 53 0.0 0.0 0.00 0.00 0.00
20260509235118 66 53 0.0 2.0 0.00 0.00 0.00
20260509234609 66 53 0.0 1.0 0.00 0.00 0.00
20260509234104 68 18 0.0 2.0 0.00 0.00 0.00
20260509233559 68 21 0.0 5.0 0.00 0.00 0.00
20260509233055 67 28 0.0 6.0 0.00 0.00 0.00
20260509232550 69 359 4.0 2.0 0.00 0.00 0.00
20260509232045 70 8 0.0 5.0 0.00 0.00 0.00
20260509231537 70 264 1.0 3.0 0.00 0.00 0.00
20260509231032 72 345 0.0 3.0 0.00 0.00 0.00